Weather in Chemlyzh

Russia / Bryansk Oblast     52°14′43″N   34°25′15″E
temp.,
°C
wind,
m/s
gust,
m/s
humid.,
%
clouds,
%
prec.,
mm/h
press.,
hPa
HPBL,
m
17 may, mon
mon1700:00+14ene368089 0.0 101077
03:00+14ene3108099 0.0 1010194
06:00+14ene6129211 1.0 1007280
09:00+20ese6137938 1.0 1006577
12:00+23ese81562100 0.0 10041159
15:00+24se8136284 0.0 10041577
18:00+22se71273100 0.0 1003922
21:00+18ese6158799 0.5 1004450
18 may, tue
tue1800:00+17se51392100 0.1 1004357
03:00+16se51094100 0.1 1004263
06:00+16se4995100 0.0 1005287
09:00+20sse5881100 0.0 1005712
12:00+18sse688099 2.9 1006663
15:00+18sse5877100 3.0 1005646
18:00+18se5981100 0.1 1004653
21:00+15se4109494 0.1 1004250
19 may, wed
wed1900:00+14se3896100 0.0 1004191
03:00+13se39965 0.0 1004202
06:00+12se379716 0.0 1005217
09:00+17sse578374 0.1 1006778
12:00+18sse6774100 0.8 10061121
15:00+18sse577658 2.6 1006854
18:00+17s4684100 1.7 1006650
21:00+12ssw3796100 2.9 1007295
20 may, thu
thu2000:00+12s1296100 0.2 100698
03:00+11sse2295100 0.3 100534
06:00+11sse2394100 0.0 1005124
09:00+15s357887 0.0 1004534
12:00+17s687799 0.7 10041123
15:00+14ssw61085100 1.9 1006873
18:00+16ssw6107723 0.2 10061228
21:00+13s51191100 0.3 1007433
21 may, fri
fri2100:00+12s61094100 0.3 1008557
03:00+12sw4995100 0.8 1008561
06:00+10sw6129281 0.1 1009759
09:00+11sw8127787 0.1 10101152
12:00+12wsw7117887 0.1 10121136
15:00+14w7106344 0.1 10141457
18:00+15w48655 0.0 10141545
21:00+10w228148 0.0 101616